Location: Borowce
(50.8255°N, 19.6209°E)
Time: 17:01:51
(UTC+00:00)

Meteor 2-4 Rocket - Pass Details

Date: 19 May 2025
Orbit: 798 x 906 km, 81.2° (Epoch: 20 June)

Event Time Altitude Azimuth Distance (km) Brightness Sun altitude
Exits shadow 22:30:52 29° 210° (SSW) 1,520 4.6 -19.2°
Maximum altitude 22:33:48 68° 285° (WNW) 942 3.9 -19.2°
Drops below altitude 10° 22:39:38 10° 9° (N) 2,567 7.4 -19.2°
Sets 22:42:09 0° 12° (NNE) 3,523 8.5 -19.2°
